Weather History for KOVE - June, 2014

Change the Weather History Date:

Tuesday, June 10, 2014

  Actual Average Record
Temperature  
Mean Temperature 86 °F -  
Max Temperature 102 °F 88 °F - (-1)
Min Temperature 69 °F 59 °F - (-1)
Cooling Degree Days 20    
Growing Degree Days 36 (Base 50)    
Moisture  
Dew Point 49 °F    
Average Humidity 32    
Maximum Humidity 53    
Minimum Humidity 14    
Precipitation  
Precipitation 0.00 in - - ()
Sea Level Pressure  
Sea Level Pressure 29.67 in    
Wind  
Wind Speed 5 mph (WNW)    
Max Wind Speed 15 mph    
Max Gust Speed 21 mph    
Visibility 10 miles    
Events      
Averages and records for this station are not official NWS values.
T = Trace of Precipitation, MM = Missing Value Source: NWS Daily Summary

Daily Weather History Graph

Daily Weather History Graph

Search for Another Location

Airport or City:

Trip Planner

Search our weather history database for the weather conditions in past years. The results will help you decide how hot, cold, wet, or windy it might be!

Date:

Astronomy

Jun. 10, 2014 Rise Set
Actual Time 5:38 AM PDT 8:33 PM PDT
Civil Twilight 5:06 AM PDT 9:05 PM PDT
Nautical Twilight 4:25 AM PDT 9:46 PM PDT
Astronomical Twilight 3:38 AM PDT 10:33 PM PDT
Moon 6:04 PM PDT (6/10) 3:47 AM PDT (6/10)
Length of Visible Light 15h 58m
Length of Day
14h 54m
Waxing Gibbous, 93% of the Moon is Illuminated
Jun 10
Waxing Gibbous
Jun 12
Full
Jun 19
Last Quarter
Jun 27
New
Jul 5
First Quarter

Hourly Weather History & Observations

Time (PDT) Temp. Heat Index Dew Point Humidity Pressure Visibility Wind Dir Wind Speed Gust Speed Precip Events Conditions
12:53 AM 79.0 °F - 46.9 °F 32% 29.66 in 10.0 mi Calm Calm - N/A   Clear
1:53 AM 84.0 °F - 43.0 °F 24% 29.66 in 10.0 mi ENE 8.1 mph - N/A   Clear
2:53 AM 75.9 °F - 51.1 °F 42% 29.68 in 10.0 mi Calm Calm - N/A   Clear
3:53 AM 73.9 °F - 53.1 °F 48% 29.68 in 10.0 mi Calm Calm - N/A   Clear
4:53 AM 72.0 °F - 48.9 °F 44% 29.68 in 10.0 mi North 4.6 mph - N/A   Clear
5:53 AM 69.1 °F - 51.1 °F 53% 29.69 in 10.0 mi Calm Calm - N/A   Clear
6:53 AM 73.0 °F - 51.1 °F 46% 29.70 in 10.0 mi Calm Calm - N/A   Clear
8:53 AM 84.0 °F - 48.9 °F 29% 29.71 in 10.0 mi WNW 6.9 mph - N/A   Clear
10:53 AM 91.0 °F - 48.0 °F 23% 29.71 in 10.0 mi WNW 10.4 mph 19.6 mph N/A   Clear
12:53 PM 95.0 °F - 50.0 °F 22% 29.69 in 10.0 mi NW 9.2 mph 20.7 mph N/A   Clear
2:53 PM 100.0 °F - 46.0 °F 16% 29.66 in 10.0 mi WNW 10.4 mph 18.4 mph N/A   Clear
3:53 PM 102.0 °F - 46.0 °F 15% 29.65 in 10.0 mi WNW 8.1 mph 16.1 mph N/A   Clear
4:53 PM 100.9 °F - 45.0 °F 15% 29.64 in 10.0 mi West 8.1 mph - N/A   Clear
5:53 PM 100.0 °F - 42.1 °F 14% 29.62 in 10.0 mi WNW 8.1 mph - N/A   Clear
6:53 PM 97.0 °F - 48.9 °F 19% 29.61 in 10.0 mi West 5.8 mph - N/A   Clear
8:53 PM 87.1 °F - 51.1 °F 29% 29.62 in 10.0 mi SSE 4.6 mph - N/A   Clear
9:53 PM 80.1 °F - 52.0 °F 38% 29.64 in 10.0 mi NNE 3.5 mph - N/A   Clear
10:53 PM 80.1 °F 80.6 °F 57.9 °F 47% 29.67 in 10.0 mi SSE 15.0 mph - N/A   Clear
11:53 PM 75.9 °F - 57.0 °F 52% 29.69 in 10.0 mi SSE 13.8 mph - N/A   Clear